Tracking 30009 objects as of 8-Dec-2024
HD Live streaming from Space Station
objects crossing your sky now

BPA 1/SL-24 R/B

Track BPA 1/SL-24 R/B now!
10-day predictions


NORAD ID: 36600
Int'l Code: 2010-028C
Perigee: 721.8 km
Apogee: 1,272.1 km
Inclination: 98.3 °
Period: 104.9 minutes
Semi major axis: 7367 km
RCS: 6.6389 m2 (large)
Launch date: June 15, 2010
Source: Commonwealth of Independent States (former USSR) (CIS)
Launch site: Orenburg, Russia (OREN)

Note: This is a ROCKET BODY
Your satellite tracking list
Your tracking list is empty




NASA's NSSDC Master Catalog

Two Line Element Set (TLE):
1 36600U 10028C   24342.53658968  .00000155  00000-0  12758-3 0  9998
2 36600  98.3149 258.4772 0373489 306.9197 229.3272 13.72723964725459
Source of the keplerian elements: AFSPC